User: anonymous   Login
Location: Unspecified
(47.8330°N, 0.0000°E)
Time: 14:44:04
(UTC+00:00)
Language:

BEESAT - Orbit

View from above orbital plane
View from above orbital plane
View from above satellite
View from above satellite

Ground track
Ground track

The orbit data is extracted from the following two-line orbital elements,

1 35933U 09051C   19201.89062568 +.00000044 +00000-0 +21050-4 0  9995
2 35933 098.5935 010.5830 0007069 082.5727 277.6273 14.56381519521492
Epoch (UTC): 20 July 2019 21:22:30
Eccentricity: 0.0007069
inclination: 98.5935°
perigee height: 700 km
apogee height: 710 km
right ascension of ascending node: 10.5830°
argument of perigee: 82.5727°
revolutions per day: 14.56381519
mean anomaly at epoch: 277.6273°
orbit number at epoch: 52149

The dashed part of the orbit path shows where the satellite is in the earth's shadow,  

DLR